When you browse on this site, cookies collect data to enhance your experience and personalize the content and advertising you see.
Visit our Privacy Policy to learn more. By continuing to use the site, you agree to this use of cookies and data.
  • In Österreich
  • Länderverzeichnis
  • Für 7 Tage
  • Wassertemperatur
  • Wetterkarte
  • News
  • Widgets
  • user-avatar
    Anmelden

    Stündliche Wetter Thessaloniki

    Heute, 28 Mai, Donnerstag

    Zeit Temperatur Niederschläge Wind Luftdruck Luftfeuchtigkeit
    00:00 +13°C° 0.1 mm 3 m/S 761 mmHg 73%
    01:00 +13°C° 0.1 mm 3 m/S 761 mmHg 74%
    02:00 +13°C° 0 mm 2 m/S 761 mmHg 76%
    03:00 +13°C° 0 mm 2 m/S 761 mmHg 76%
    04:00 +12°C° 0 mm 3 m/S 761 mmHg 77%
    05:00 +11°C° 0 mm 3 m/S 761 mmHg 77%
    06:00 +13°C° 0 mm 4 m/S 760 mmHg 73%
    07:00 +14°C° 0 mm 4 m/S 760 mmHg 69%
    08:00 +17°C° 0 mm 4 m/S 760 mmHg 65%
    09:00 +18°C° 0 mm 4 m/S 760 mmHg 61%
    10:00 +19°C° 0 mm 4 m/S 760 mmHg 57%
    11:00 +20°C° 0 mm 4 m/S 759 mmHg 53%
    12:00 +21°C° 0.1 mm 4 m/S 759 mmHg 51%
    13:00 +22°C° 0.1 mm 4 m/S 759 mmHg 49%
    14:00 +22°C° 0.1 mm 4 m/S 758 mmHg 48%
    15:00 +22°C° 0.1 mm 4 m/S 758 mmHg 48%
    16:00 +22°C° 0.1 mm 4 m/S 758 mmHg 49%
    17:00 +22°C° 0.1 mm 4 m/S 757 mmHg 50%
    18:00 +21°C° 0.1 mm 4 m/S 757 mmHg 55%
    19:00 +19°C° 0.1 mm 3 m/S 758 mmHg 59%
    20:00 +18°C° 0.1 mm 2 m/S 758 mmHg 64%
    21:00 +17°C° 0 mm 2 m/S 758 mmHg 64%
    22:00 +17°C° 0 mm 3 m/S 758 mmHg 64%
    23:00 +16°C° 0 mm 3 m/S 759 mmHg 64%

    Morgen, 29 Mai, Freitag

    Zeit Temperatur Niederschläge Wind Luftdruck Luftfeuchtigkeit
    00:00 +16°C° 0 mm 3 m/S 758 mmHg 66%
    01:00 +14°C° 0 mm 3 m/S 758 mmHg 68%
    02:00 +13°C° 0 mm 3 m/S 758 mmHg 70%
    03:00 +13°C° 0 mm 3 m/S 758 mmHg 71%
    04:00 +13°C° 0 mm 3 m/S 758 mmHg 72%
    05:00 +13°C° 0 mm 3 m/S 758 mmHg 73%
    06:00 +14°C° 0 mm 3 m/S 758 mmHg 69%
    07:00 +15°C° 0 mm 4 m/S 758 mmHg 65%
    08:00 +18°C° 0 mm 4 m/S 758 mmHg 62%
    09:00 +19°C° 0 mm 4 m/S 758 mmHg 57%
    10:00 +20°C° 0 mm 4 m/S 758 mmHg 53%
    11:00 +22°C° 0 mm 4 m/S 758 mmHg 49%
    12:00 +22°C° 0 mm 3 m/S 757 mmHg 47%
    13:00 +24°C° 0 mm 3 m/S 757 mmHg 45%
    14:00 +25°C° 0 mm 3 m/S 757 mmHg 43%
    15:00 +25°C° 0 mm 3 m/S 756 mmHg 44%
    16:00 +25°C° 0 mm 3 m/S 756 mmHg 44%
    17:00 +25°C° 0 mm 3 m/S 756 mmHg 44%
    18:00 +22°C° 0 mm 3 m/S 756 mmHg 51%
    19:00 +20°C° 0 mm 2 m/S 756 mmHg 58%
    20:00 +19°C° 0 mm 2 m/S 757 mmHg 65%
    21:00 +18°C° 0 mm 2 m/S 757 mmHg 65%
    22:00 +17°C° 0 mm 2 m/S 757 mmHg 65%
    23:00 +18°C° 0 mm 1 m/S 757 mmHg 65%

    übermorgen, 30 Mai, Samstag

    Zeit Temperatur Niederschläge Wind Luftdruck Luftfeuchtigkeit
    00:00 +16°C° 0 mm 1 m/S 757 mmHg 67%
    01:00 +16°C° 0 mm 1 m/S 757 mmHg 68%
    02:00 +15°C° 0 mm 1 m/S 757 mmHg 69%
    03:00 +15°C° 0 mm 1 m/S 757 mmHg 70%
    04:00 +15°C° 0 mm 1 m/S 757 mmHg 70%
    05:00 +15°C° 0 mm 1 m/S 757 mmHg 71%
    06:00 +16°C° 0 mm 2 m/S 757 mmHg 67%
    07:00 +18°C° 0 mm 2 m/S 757 mmHg 64%
    08:00 +19°C° 0 mm 2 m/S 757 mmHg 60%
    09:00 +20°C° 0 mm 2 m/S 757 mmHg 55%
    10:00 +23°C° 0 mm 2 m/S 757 mmHg 50%
    11:00 +24°C° 0 mm 1 m/S 757 mmHg 46%
    12:00 +25°C° 0 mm 2 m/S 757 mmHg 44%
    13:00 +25°C° 0 mm 2 m/S 756 mmHg 43%
    14:00 +26°C° 0 mm 3 m/S 756 mmHg 42%
    15:00 +25°C° 0 mm 3 m/S 756 mmHg 46%
    16:00 +25°C° 0 mm 4 m/S 756 mmHg 49%
    17:00 +23°C° 0 mm 4 m/S 755 mmHg 53%
    18:00 +22°C° 0 mm 3 m/S 756 mmHg 59%
    19:00 +20°C° 0 mm 3 m/S 756 mmHg 65%
    20:00 +19°C° 0 mm 2 m/S 756 mmHg 71%
    21:00 +19°C° 0.1 mm 2 m/S 756 mmHg 73%
    22:00 +18°C° 0.1 mm 2 m/S 756 mmHg 75%
    23:00 +19°C° 0.1 mm 1 m/S 756 mmHg 77%

    31 Mai, Sonntag

    Zeit Temperatur Niederschläge Wind Luftdruck Luftfeuchtigkeit
    00:00 +19°C° 0.5 mm 1 m/S 756 mmHg 78%
    01:00 +19°C° 0.5 mm 1 m/S 756 mmHg 79%
    02:00 +18°C° 0.5 mm 1 m/S 756 mmHg 80%
    03:00 +18°C° 0.3 mm 1 m/S 756 mmHg 81%
    04:00 +16°C° 0.3 mm 1 m/S 756 mmHg 82%
    05:00 +16°C° 0.3 mm 1 m/S 756 mmHg 84%
    06:00 +18°C° 0 mm 1 m/S 756 mmHg 79%
    07:00 +19°C° 0 mm 2 m/S 756 mmHg 74%
    08:00 +20°C° 0 mm 2 m/S 756 mmHg 69%
    09:00 +22°C° 0.2 mm 1 m/S 755 mmHg 62%
    10:00 +24°C° 0.2 mm 1 m/S 755 mmHg 56%
    11:00 +25°C° 0.2 mm 1 m/S 755 mmHg 50%
    12:00 +25°C° 0.5 mm 1 m/S 755 mmHg 49%
    13:00 +26°C° 0.5 mm 2 m/S 754 mmHg 48%
    14:00 +26°C° 0.5 mm 2 m/S 754 mmHg 47%
    15:00 +26°C° 0.4 mm 3 m/S 754 mmHg 50%
    16:00 +25°C° 0.4 mm 3 m/S 753 mmHg 52%
    17:00 +25°C° 0.4 mm 3 m/S 753 mmHg 54%
    18:00 +22°C° 0.2 mm 3 m/S 753 mmHg 60%
    19:00 +21°C° 0.2 mm 2 m/S 753 mmHg 65%
    20:00 +19°C° 0.2 mm 2 m/S 754 mmHg 71%
    21:00 +19°C° 0.6 mm 2 m/S 754 mmHg 73%
    22:00 +18°C° 0.6 mm 2 m/S 754 mmHg 76%
    23:00 +17°C° 0.6 mm 2 m/S 754 mmHg 79%

    1 Juni, Montag

    Zeit Temperatur Niederschläge Wind Luftdruck Luftfeuchtigkeit
    00:00 +18°C° 0.2 mm 1 m/S 754 mmHg 78%
    01:00 +18°C° 0.2 mm 1 m/S 754 mmHg 78%
    02:00 +18°C° 0.2 mm 1 m/S 754 mmHg 78%
    03:00 +16°C° 0 mm 2 m/S 754 mmHg 78%
    04:00 +16°C° 0 mm 2 m/S 754 mmHg 79%
    05:00 +16°C° 0 mm 2 m/S 754 mmHg 79%
    06:00 +17°C° 0 mm 3 m/S 754 mmHg 75%
    07:00 +18°C° 0 mm 3 m/S 754 mmHg 70%
    08:00 +19°C° 0 mm 3 m/S 754 mmHg 66%
    09:00 +21°C° 0.1 mm 3 m/S 754 mmHg 60%
    10:00 +22°C° 0.1 mm 3 m/S 753 mmHg 54%
    11:00 +25°C° 0.1 mm 2 m/S 753 mmHg 48%
    12:00 +25°C° 0.2 mm 2 m/S 753 mmHg 46%
    13:00 +26°C° 0.2 mm 2 m/S 752 mmHg 44%
    14:00 +26°C° 0.2 mm 2 m/S 752 mmHg 42%
    15:00 +26°C° 0.1 mm 2 m/S 752 mmHg 43%
    16:00 +26°C° 0.1 mm 3 m/S 752 mmHg 45%
    17:00 +26°C° 0.1 mm 3 m/S 752 mmHg 47%
    18:00 +24°C° 0.1 mm 3 m/S 752 mmHg 55%
    19:00 +21°C° 0.1 mm 3 m/S 752 mmHg 63%
    20:00 +19°C° 0.1 mm 3 m/S 752 mmHg 71%
    21:00 +19°C° 0.2 mm 2 m/S 753 mmHg 72%
    22:00 +18°C° 0.2 mm 2 m/S 753 mmHg 73%
    23:00 +18°C° 0.2 mm 2 m/S 753 mmHg 73%

    2 Juni, Dienstag

    Zeit Temperatur Niederschläge Wind Luftdruck Luftfeuchtigkeit
    00:00 +18°C° 0 mm 2 m/S 753 mmHg 75%
    01:00 +17°C° 0 mm 2 m/S 753 mmHg 77%
    02:00 +17°C° 0 mm 2 m/S 753 mmHg 79%
    03:00 +17°C° 0 mm 2 m/S 753 mmHg 78%
    04:00 +17°C° 0 mm 2 m/S 753 mmHg 77%
    05:00 +16°C° 0 mm 1 m/S 753 mmHg 76%
    06:00 +17°C° 0 mm 2 m/S 753 mmHg 72%
    07:00 +18°C° 0 mm 2 m/S 753 mmHg 68%
    08:00 +19°C° 0 mm 3 m/S 753 mmHg 64%
    09:00 +21°C° 0 mm 2 m/S 753 mmHg 60%
    10:00 +23°C° 0 mm 2 m/S 753 mmHg 55%
    11:00 +24°C° 0 mm 2 m/S 753 mmHg 50%
    12:00 +25°C° 0.3 mm 2 m/S 753 mmHg 49%
    13:00 +26°C° 0.3 mm 2 m/S 753 mmHg 48%
    14:00 +26°C° 0.3 mm 2 m/S 753 mmHg 47%
    15:00 +26°C° 0.3 mm 2 m/S 752 mmHg 49%
    16:00 +25°C° 0.3 mm 3 m/S 752 mmHg 51%
    17:00 +25°C° 0.3 mm 3 m/S 752 mmHg 53%
    18:00 +22°C° 0.1 mm 3 m/S 752 mmHg 59%
    19:00 +21°C° 0.1 mm 2 m/S 752 mmHg 64%
    20:00 +19°C° 0.1 mm 2 m/S 752 mmHg 70%
    21:00 +20°C° 0 mm 1 m/S 752 mmHg 72%
    22:00 +19°C° 0 mm 1 m/S 753 mmHg 73%
    23:00 +19°C° 0 mm 1 m/S 753 mmHg 75%
    Mehr zeigen